CW8668 Weather Reports


time (UTC)temp
C
wind
direction
speed
KPH
gust
KPH
rain 1hr
cm
rain 24hr
cm
rain mn
cm
humidity
%
barometer
mb
20260502123017 11 203 3.2 12.9 0.00 0.13 0.13 90 1020.0
20260502121517 11 203 1.6 11.3 0.00 0.13 0.13 91 1020.1
20260502114517 11 0.0 3.2 0.00 0.13 0.13 90 1020.2
20260502113017 11 203 1.6 4.8 0.00 0.13 0.13 90 1020.3
20260502111517 11 0.0 3.2 0.03 0.13 0.13 89 1020.3
20260502110016 11 0.0 1.6 0.03 0.13 0.13 89 1020.5
20260502104536 11 0.0 0.0 0.03 0.13 0.13 89 1020.5
20260502103017 11 0.0 1.6 0.03 0.13 0.13 89 1020.6
20260502101517 11 0.0 1.6 0.03 0.10 0.10 89 1020.7
20260502091516 10 0.0 3.2 0.05 0.08 0.08 88 1020.9
20260502071516 10 0.0 1.6 0.00 0.03 0.00 85 1020.2
20260502070016 10 0.0 3.2 0.00 0.03 0.00 86 1020.0
20260502064516 10 0.0 1.6 0.00 0.03 0.00 86 1019.9
20260502063016 10 0.0 3.2 0.00 0.03 0.00 86 1019.9
20260502060016 10 158 1.6 3.2 0.00 0.03 0.00 87 1019.6
20260502054516 10 23 1.6 3.2 0.00 0.03 0.00 87 1019.4
20260502053016 10 23 1.6 3.2 0.00 0.03 0.00 87 1019.3
20260502051516 10 0.0 1.6 0.00 0.03 0.00 87 1019.4
20260502050017 10 0.0 1.6 0.00 0.03 0.00 87 1019.4
20260502044516 10 0.0 3.2 0.00 0.03 0.00 86 1019.4
20260502043016 10 0.0 1.6 0.00 0.03 0.00 87 1019.1
20260502041516 10 0.0 3.2 0.00 0.03 0.00 86 1019.4
20260502040016 10 45 1.6 3.2 0.00 0.03 0.00 86 1019.0
20260502034516 9 45 1.6 4.8 0.00 0.03 0.00 87 1019.0
20260502033016 9 45 1.6 8.0 0.00 0.03 0.00 87 1019.0
20260502031516 9 0.0 1.6 0.00 0.03 0.00 87 1019.2
20260502030016 9 45 1.6 3.2 0.00 0.03 0.00 87 1019.3
20260502024516 9 45 1.6 3.2 0.00 0.03 0.00 87 1019.5
20260502023016 8 45 1.6 3.2 0.00 0.03 0.00 88 1019.7
20260502021516 8 45 1.6 4.8 0.00 0.03 0.00 88 1019.7
20260502020016 8 45 3.2 8.0 0.00 0.03 0.00 88 1019.6
20260502014516 8 45 3.2 8.0 0.00 0.03 0.00 87 1019.6
20260502013015 8 45 3.2 8.0 0.00 0.03 0.00 87 1019.7
20260502011516 8 45 1.6 4.8 0.00 0.03 0.00 86 1019.8
20260502010016 8 45 1.6 4.8 0.00 0.03 0.00 87 1020.1
20260502004516 8 0.0 3.2 0.00 0.03 0.00 87 1020.2
20260502003036 8 45 3.2 8.0 0.00 0.03 0.00 87 1020.0
20260502001556 8 45 1.6 4.8 0.00 0.03 0.00 86 1020.1
20260502000016 8 45 3.2 8.0 0.00 0.03 0.03 86 1020.3
20260501234536 8 45 1.6 4.8 0.00 0.03 0.03 85 1020.4
20260501233016 8 113 1.6 4.8 0.00 0.03 0.03 85 1020.6
20260501231516 8 45 3.2 4.8 0.00 0.03 0.03 85 1020.5
20260501230015 9 45 3.2 8.0 0.00 0.03 0.03 84 1020.4
20260501224515 9 45 3.2 6.4 0.00 0.03 0.03 83 1020.3
20260501223016 9 45 1.6 8.0 0.00 0.03 0.03 83 1020.3
20260501221515 9 45 4.8 9.7 0.00 0.03 0.03 83 1020.3
20260501220016 10 45 3.2 8.0 0.00 0.03 0.03 82 1020.7
20260501214515 10 45 3.2 8.0 0.00 0.03 0.03 82 1020.7
20260501213016 10 45 3.2 6.4 0.00 0.03 0.03 81 1020.7
20260501211515 10 0.0 3.2 0.00 0.03 0.03 79 1020.6
20260501210015 11 0.0 3.2 0.00 0.03 0.03 77 1020.7
20260501204516 11 0.0 1.6 0.00 0.03 0.03 75 1020.5
20260501203015 11 0.0 3.2 0.00 0.03 0.03 73 1020.5
20260501201515 12 45 1.6 9.7 0.00 0.03 0.03 73 1020.6
20260501200015 12 45 4.8 9.7 0.00 0.03 0.03 70 1020.5
20260501194536 12 45 4.8 9.7 0.00 0.05 0.03 70 1020.4
20260501193015 13 45 3.2 9.7 0.00 0.05 0.03 69 1020.3
20260501191515 13 45 3.2 8.0 0.00 0.05 0.03 68 1020.0
20260501190015 14 45 3.2 8.0 0.00 0.05 0.03 65 1020.2
20260501184515 15 45 3.2 8.0 0.00 0.05 0.03 60 1019.9
20260501183056 15 113 3.2 9.7 0.00 0.30 0.03 57 1019.9
20260501181515 16 45 3.2 8.0 0.00 0.48 0.03 55 1019.7
20260501180015 16 45 4.8 11.3 0.00 0.71 0.03 55 1019.9
20260501174515 16 45 6.4 11.3 0.00 0.76 0.03 55 1019.8
20260501173015 16 45 8.0 12.9 0.00 0.76 0.03 54 1019.8
20260501171517 16 45 8.0 12.9 0.00 0.76 0.03 53 1019.8
20260501170037 16 45 8.0 14.5 0.00 0.76 0.03 51 1019.8
20260501164537 16 45 9.7 17.7 0.00 0.76 0.03 51 1019.8
20260501163017 16 45 11.3 17.7 0.00 0.76 0.03 50 1020.0
20260501161517 16 45 9.7 19.3 0.00 0.76 0.03 53 1019.9
20260501160017 17 45 9.7 19.3 0.00 0.76 0.03 52 1019.5
20260501154537 17 45 9.7 20.9 0.00 0.76 0.03 50 1019.3
20260501153017 17 45 14.5 27.4 0.00 0.76 0.03 52 1019.1
20260501151537 17 23 14.5 25.7 0.00 0.76 0.03 50 1019.1
20260501150017 17 45 12.9 20.9 0.00 0.76 0.03 51 1019.1
20260501144517 17 45 11.3 17.7 0.00 0.76 0.03 51 1019.1
20260501143017 17 45 12.9 19.3 0.00 0.76 0.03 49 1019.2